LOT22P EPSY-EFHK

Flight info

Callsign LOT22P
Flight time 1h 34m
Altitude 35000
Route LUSUL DCT SUW DCT BOKSU DCT GUNTA DCT INTOR
Aircraft B738/M-SDE2E3FGHIRWXY/LB1

Departure

Time 2026-05-07 13:59
Airport Olsztyn-Mazury Airport (EPSY)

Arrival

Time 2026-05-07 15:34
Airport Helsinki Vantaa Airport (EFHK)
Time Latitude Longitude Altitude Speed Heading
2026-05-07 13:33 53.48740 20.94503 471 ft 0 kts 108°
2026-05-07 13:50 53.48743 20.94488 471 ft 2 kts 108°
2026-05-07 13:50 53.48748 20.94465 471 ft 2 kts 108°
2026-05-07 13:50 53.48753 20.94440 471 ft 2 kts 122°
2026-05-07 13:51 53.48763 20.94421 471 ft 2 kts 141°
2026-05-07 13:51 53.48776 20.94408 471 ft 2 kts 160°
2026-05-07 13:51 53.48791 20.94402 471 ft 2 kts 179°
2026-05-07 13:51 53.48806 20.94405 471 ft 1 kts 198°
2026-05-07 13:52 53.48812 20.94409 471 ft 1 kts 205°
2026-05-07 13:52 53.48815 20.94411 471 ft 0 kts 203°
2026-05-07 13:53 53.48814 20.94411 471 ft 0 kts 203°
2026-05-07 13:54 53.48794 20.94396 471 ft 5 kts 203°
2026-05-07 13:54 53.48782 20.94386 471 ft 1 kts 216°
2026-05-07 13:54 53.48779 20.94296 471 ft 14 kts 287°
2026-05-07 13:54 53.48816 20.94158 471 ft 11 kts 315°
2026-05-07 13:55 53.48887 20.94158 471 ft 10 kts 22°
2026-05-07 13:55 53.48922 20.94181 471 ft 9 kts 19°
2026-05-07 13:55 53.48964 20.94210 471 ft 8 kts 25°
2026-05-07 13:55 53.48970 20.94214 471 ft 8 kts 21°
2026-05-07 13:56 53.49021 20.94228 471 ft 6 kts 14°
2026-05-07 13:56 53.49074 20.94266 471 ft 12 kts 21°
2026-05-07 13:56 53.49181 20.94324 471 ft 15 kts 15°
2026-05-07 13:56 53.49211 20.94387 471 ft 1 kts 159°
2026-05-07 13:57 53.49170 20.94337 471 ft 20 kts 217°
2026-05-07 13:57 53.48879 20.94153 472 ft 70 kts 197°
2026-05-07 13:57 53.48385 20.93880 471 ft 42 kts 199°
2026-05-07 13:57 53.48107 20.93724 471 ft 49 kts 198°
2026-05-07 13:58 53.47694 20.93493 471 ft 74 kts 199°
2026-05-07 13:58 53.47272 20.93258 471 ft 26 kts 198°
2026-05-07 13:58 53.47162 20.93205 471 ft 14 kts 173°
2026-05-07 13:58 53.47132 20.93162 471 ft 2 kts 327°
2026-05-07 13:59 53.47197 20.93214 471 ft 18 kts 26°
2026-05-07 13:59 53.47509 20.93390 472 ft 95 kts 18°
2026-05-07 13:59 53.48434 20.93909 492 ft 183 kts 18°
2026-05-07 13:59 53.49753 20.94708 1159 ft 221 kts 19°
2026-05-07 14:00 53.51291 20.95662 2252 ft 251 kts 19°
2026-05-07 14:00 53.52829 20.96531 3708 ft 236 kts 14°
2026-05-07 14:00 53.54367 20.97141 4842 ft 235 kts
2026-05-07 14:00 53.55990 20.97818 5624 ft 252 kts 14°
2026-05-07 14:01 53.57723 20.98669 6397 ft 271 kts 14°
2026-05-07 14:01 53.59510 20.99626 7498 ft 276 kts 16°
2026-05-07 14:01 53.61354 21.00575 8531 ft 284 kts 13°
2026-05-07 14:01 53.63252 21.01449 9535 ft 293 kts 14°
2026-05-07 14:02 53.65145 21.02845 10466 ft 308 kts 34°
2026-05-07 14:02 53.66722 21.05447 11148 ft 331 kts 49°
2026-05-07 14:02 53.68288 21.08432 11755 ft 356 kts 48°
2026-05-07 14:02 53.70056 21.11564 12318 ft 382 kts 46°
2026-05-07 14:03 53.71918 21.14802 13249 ft 396 kts 46°
2026-05-07 14:03 53.73854 21.18138 14342 ft 406 kts 44°
2026-05-07 14:03 53.76073 21.21081 15481 ft 413 kts 33°
2026-05-07 14:03 53.78482 21.23767 16619 ft 420 kts 34°
2026-05-07 14:04 53.80672 21.27053 17697 ft 427 kts 47°
2026-05-07 14:04 53.82423 21.31085 18745 ft 434 kts 58°
2026-05-07 14:04 53.83699 21.35713 19738 ft 441 kts 71°
2026-05-07 14:04 53.84520 21.40757 20717 ft 447 kts 76°
2026-05-07 14:05 53.85273 21.45836 21634 ft 453 kts 75°
2026-05-07 14:05 53.86089 21.51031 22536 ft 460 kts 74°
2026-05-07 14:05 53.86911 21.56204 23396 ft 465 kts 74°
2026-05-07 14:05 53.87748 21.61542 24245 ft 471 kts 74°
2026-05-07 14:06 53.88575 21.66853 25047 ft 476 kts 74°
2026-05-07 14:06 53.89421 21.72309 25842 ft 481 kts 74°
2026-05-07 14:06 53.90268 21.77784 26602 ft 486 kts 74°
2026-05-07 14:06 53.91123 21.83335 27337 ft 491 kts 74°
2026-05-07 14:07 53.91979 21.88915 28257 ft 489 kts 74°
2026-05-07 14:07 53.92819 21.94420 29401 ft 482 kts 73°
2026-05-07 14:07 53.93653 21.99898 30335 ft 479 kts 73°
2026-05-07 14:07 53.94478 22.05338 31239 ft 476 kts 73°
2026-05-07 14:08 53.95293 22.10723 32108 ft 473 kts 73°
2026-05-07 14:08 53.96101 22.16084 32940 ft 469 kts 73°
2026-05-07 14:08 53.96904 22.21431 33737 ft 466 kts 73°
2026-05-07 14:08 53.97649 22.26411 34421 ft 464 kts 73°
2026-05-07 14:09 53.98445 22.31738 34944 ft 466 kts 73°
2026-05-07 14:09 54.00032 22.42413 34926 ft 465 kts 73°
2026-05-07 14:10 54.01591 22.52993 34879 ft 462 kts 73°
2026-05-07 14:10 54.03144 22.63585 34858 ft 464 kts 73°
2026-05-07 14:11 54.04680 22.74134 34858 ft 465 kts 73°
2026-05-07 14:11 54.06841 22.84385 34857 ft 457 kts 56°
2026-05-07 14:11 54.08737 22.88595 34858 ft 451 kts 43°
2026-05-07 14:12 54.11100 22.91965 34859 ft 447 kts 32°
2026-05-07 14:12 54.16643 22.96552 34859 ft 442 kts 18°
2026-05-07 14:13 54.22346 23.00235 34858 ft 442 kts 19°
2026-05-07 14:13 54.28051 23.04055 34874 ft 441 kts 18°
2026-05-07 14:14 54.33934 23.06597 34904 ft 438 kts
2026-05-07 14:14 54.39919 23.08627 34934 ft 439 kts
2026-05-07 14:15 54.45880 23.10659 34939 ft 439 kts
2026-05-07 14:15 54.51848 23.12636 34939 ft 438 kts
2026-05-07 14:16 54.57816 23.14600 34939 ft 438 kts
2026-05-07 14:16 54.63743 23.16542 34939 ft 438 kts
2026-05-07 14:17 54.69713 23.18496 34939 ft 438 kts
2026-05-07 14:17 54.75689 23.20455 34939 ft 438 kts
2026-05-07 14:18 54.81647 23.22411 34939 ft 438 kts
2026-05-07 14:18 54.87637 23.24382 34939 ft 438 kts
2026-05-07 14:19 54.93609 23.26353 34940 ft 440 kts
2026-05-07 14:19 54.99638 23.28347 34939 ft 445 kts
2026-05-07 14:20 55.05719 23.30365 34941 ft 448 kts
2026-05-07 14:20 55.11769 23.32379 34958 ft 447 kts
2026-05-07 14:21 55.17844 23.34407 34971 ft 447 kts
2026-05-07 14:21 55.23918 23.36442 34978 ft 447 kts
2026-05-07 14:22 55.29990 23.38481 34983 ft 447 kts
2026-05-07 14:22 55.36092 23.40538 34991 ft 447 kts
2026-05-07 14:23 55.42185 23.42597 34993 ft 447 kts
2026-05-07 14:23 55.48241 23.44651 34993 ft 447 kts
2026-05-07 14:24 55.54316 23.46718 34993 ft 447 kts
2026-05-07 14:24 55.60390 23.48790 34993 ft 447 kts
2026-05-07 14:25 55.66499 23.50882 34993 ft 447 kts
2026-05-07 14:25 55.72584 23.52971 34993 ft 447 kts
2026-05-07 14:26 55.78629 23.55054 34993 ft 447 kts
2026-05-07 14:26 55.84696 23.57150 34993 ft 447 kts
2026-05-07 14:27 55.90796 23.59265 34993 ft 447 kts
2026-05-07 14:27 55.96863 23.61375 34993 ft 447 kts
2026-05-07 14:28 56.02960 23.63503 34993 ft 447 kts
2026-05-07 14:28 56.09018 23.65623 34993 ft 447 kts
2026-05-07 14:29 56.15078 23.67751 34993 ft 447 kts
2026-05-07 14:29 56.21138 23.69885 34993 ft 447 kts
2026-05-07 14:30 56.27255 23.72047 34993 ft 447 kts
2026-05-07 14:30 56.33299 23.74189 34993 ft 447 kts
2026-05-07 14:31 56.39380 23.76367 35004 ft 447 kts
2026-05-07 14:31 56.45456 23.78669 35015 ft 447 kts 10°
2026-05-07 14:32 56.51533 23.80969 35020 ft 448 kts 10°
2026-05-07 14:32 56.57606 23.83271 35020 ft 447 kts 10°
2026-05-07 14:33 56.63678 23.85581 35020 ft 447 kts 10°
2026-05-07 14:33 56.69730 23.87889 35020 ft 447 kts 10°
2026-05-07 14:34 56.75795 23.90210 35020 ft 447 kts 10°
2026-05-07 14:34 56.81884 23.92547 35020 ft 447 kts 10°
2026-05-07 14:35 56.87935 23.94878 35020 ft 447 kts 10°
2026-05-07 14:35 56.94014 23.97226 35020 ft 447 kts 10°
2026-05-07 14:36 57.00044 23.99564 35020 ft 447 kts
2026-05-07 14:36 57.06115 24.01926 35020 ft 446 kts
2026-05-07 14:37 57.12122 24.04270 35020 ft 445 kts
2026-05-07 14:37 57.21190 24.07822 35020 ft 445 kts
2026-05-07 14:38 57.27187 24.10182 35020 ft 446 kts
2026-05-07 14:38 57.33234 24.12569 35020 ft 446 kts
2026-05-07 14:39 57.39296 24.14971 35020 ft 445 kts
2026-05-07 14:39 57.45326 24.17367 35020 ft 445 kts
2026-05-07 14:40 57.51365 24.19775 35020 ft 445 kts
2026-05-07 14:40 57.57374 24.22180 35020 ft 446 kts
2026-05-07 14:41 57.63427 24.24610 35020 ft 445 kts
2026-05-07 14:41 57.69441 24.27033 35020 ft 445 kts
2026-05-07 14:42 57.75478 24.29473 35020 ft 446 kts
2026-05-07 14:42 57.81548 24.31935 35020 ft 446 kts
2026-05-07 14:43 57.87578 24.34389 35020 ft 446 kts
2026-05-07 14:43 57.93609 24.36852 35020 ft 445 kts
2026-05-07 14:44 57.99631 24.39320 35020 ft 445 kts
2026-05-07 14:44 58.05671 24.41804 35020 ft 446 kts
2026-05-07 14:45 58.11642 24.44268 35020 ft 446 kts
2026-05-07 14:45 58.17712 24.46780 35020 ft 446 kts
2026-05-07 14:46 58.23724 24.49278 35020 ft 445 kts
2026-05-07 14:46 58.29769 24.51798 35020 ft 445 kts
2026-05-07 14:47 58.35771 24.54309 35020 ft 446 kts
2026-05-07 14:47 58.41814 24.56846 35020 ft 445 kts
2026-05-07 14:48 58.47852 24.59389 35020 ft 445 kts
2026-05-07 14:48 58.53876 24.61937 35020 ft 445 kts
2026-05-07 14:49 58.59901 24.64493 35020 ft 445 kts
2026-05-07 14:49 58.65887 24.67040 35020 ft 446 kts 10°
2026-05-07 14:50 58.71942 24.69628 35020 ft 446 kts 10°
2026-05-07 14:50 58.77981 24.72217 35020 ft 446 kts 10°
2026-05-07 14:51 58.83997 24.74806 35022 ft 446 kts 10°
2026-05-07 14:51 58.90026 24.77409 35027 ft 446 kts 10°
2026-05-07 14:52 58.96072 24.80028 35037 ft 449 kts
2026-05-07 14:52 59.02195 24.82690 35044 ft 454 kts
2026-05-07 14:53 59.08308 24.85358 35047 ft 456 kts
2026-05-07 14:53 59.14461 24.88055 35047 ft 455 kts
2026-05-07 14:54 59.20589 24.90751 35047 ft 455 kts
2026-05-07 14:54 59.26762 24.93474 35047 ft 455 kts
2026-05-07 14:55 59.32910 24.96197 35047 ft 455 kts
2026-05-07 14:55 59.39059 24.98932 35047 ft 456 kts
2026-05-07 14:56 59.45229 25.01685 35047 ft 456 kts
2026-05-07 14:56 59.51402 25.04450 35047 ft 457 kts
2026-05-07 14:57 59.57557 25.07217 35047 ft 457 kts 10°
2026-05-07 14:57 59.63741 25.10008 35047 ft 458 kts 10°
2026-05-07 14:58 59.69903 25.12799 35047 ft 458 kts 10°
2026-05-07 14:58 59.76090 25.15612 35047 ft 458 kts 10°
2026-05-07 14:59 59.82237 25.18800 35047 ft 461 kts 17°
2026-05-07 14:59 59.88180 25.23613 35047 ft 462 kts 20°
2026-05-07 15:00 59.94152 25.28247 35044 ft 459 kts 12°
2026-05-07 15:00 59.97280 25.29147 35050 ft 456 kts
2026-05-07 15:00 60.00437 25.29432 35046 ft 455 kts 358°
2026-05-07 15:01 60.06594 25.27586 35048 ft 451 kts 342°
2026-05-07 15:01 60.12565 25.24358 35047 ft 452 kts 343°
2026-05-07 15:02 60.18670 25.21302 35047 ft 451 kts 343°
2026-05-07 15:02 60.24701 25.18227 35047 ft 451 kts 343°
2026-05-07 15:03 60.30754 25.15138 35047 ft 450 kts 343°
2026-05-07 15:03 60.36613 25.11063 35047 ft 446 kts 333°
2026-05-07 15:04 60.42150 25.05537 35047 ft 443 kts 331°
2026-05-07 15:04 60.47433 24.99349 35044 ft 436 kts 317°
2026-05-07 15:05 60.49399 24.94789 35050 ft 431 kts 303°
2026-05-07 15:05 60.51003 24.89771 35047 ft 430 kts 301°
2026-05-07 15:05 60.53444 24.78764 35045 ft 430 kts 281°
2026-05-07 15:06 60.53614 24.66627 35046 ft 432 kts 269°
2026-05-07 15:06 60.52246 24.54915 35047 ft 437 kts 244°
2026-05-07 15:07 60.48891 24.44560 35046 ft 441 kts 235°
2026-05-07 15:07 60.46779 24.40107 35044 ft 446 kts 221°
2026-05-07 15:07 60.44095 24.36967 35051 ft 452 kts 207°
2026-05-07 15:08 60.41280 24.34590 34606 ft 451 kts 205°
2026-05-07 15:08 60.38332 24.32503 33806 ft 454 kts 198°
2026-05-07 15:08 60.35216 24.31668 32965 ft 462 kts 182°
2026-05-07 15:08 60.32027 24.32677 32162 ft 466 kts 168°
2026-05-07 15:09 60.28939 24.34334 31841 ft 461 kts 167°
2026-05-07 15:09 60.25849 24.36425 31584 ft 472 kts 159°
2026-05-07 15:09 60.23084 24.39804 31402 ft 467 kts 142°
2026-05-07 15:09 60.20966 24.44560 31247 ft 456 kts 127°
2026-05-07 15:10 60.19134 24.49680 31090 ft 442 kts 127°
2026-05-07 15:10 60.17288 24.54499 30914 ft 430 kts 130°
2026-05-07 15:10 60.15453 24.59063 30741 ft 418 kts 130°
2026-05-07 15:10 60.13665 24.63568 30565 ft 407 kts 129°
2026-05-07 15:11 60.11978 24.67886 30385 ft 397 kts 130°
2026-05-07 15:11 60.10324 24.72137 30201 ft 387 kts 130°
2026-05-07 15:11 60.08698 24.76331 30016 ft 378 kts 130°
2026-05-07 15:11 60.07100 24.80466 29820 ft 369 kts 130°
2026-05-07 15:12 60.05559 24.84469 29622 ft 361 kts 130°
2026-05-07 15:12 60.04049 24.88405 29417 ft 353 kts 130°
2026-05-07 15:12 60.02542 24.92332 29177 ft 359 kts 130°
2026-05-07 15:12 60.00997 24.96365 28939 ft 378 kts 129°
2026-05-07 15:13 59.99359 25.00657 28731 ft 394 kts 129°
2026-05-07 15:13 59.97610 25.04825 28478 ft 402 kts 138°
2026-05-07 15:13 59.95361 25.08248 28236 ft 418 kts 150°
2026-05-07 15:13 59.92753 25.11041 28015 ft 436 kts 157°
2026-05-07 15:14 59.90012 25.13338 27787 ft 440 kts 162°
2026-05-07 15:14 59.87101 25.15227 27543 ft 459 kts 166°
2026-05-07 15:14 59.83958 25.16923 27288 ft 477 kts 165°
2026-05-07 15:14 59.80947 25.19571 27025 ft 482 kts 149°
2026-05-07 15:15 59.78334 25.23747 26787 ft 483 kts 137°
2026-05-07 15:15 59.75880 25.28237 26540 ft 482 kts 141°
2026-05-07 15:15 59.73361 25.32553 26288 ft 482 kts 137°
2026-05-07 15:15 59.71194 25.37543 26029 ft 482 kts 124°
2026-05-07 15:16 59.69797 25.43524 25779 ft 482 kts 106°
2026-05-07 15:16 59.69133 25.49968 25547 ft 480 kts 100°
2026-05-07 15:16 59.68545 25.56524 25290 ft 479 kts 98°
2026-05-07 15:16 59.68303 25.63022 25032 ft 477 kts 88°
2026-05-07 15:17 59.68858 25.69332 24771 ft 474 kts 72°
2026-05-07 15:17 59.70088 25.75178 24093 ft 467 kts 65°
2026-05-07 15:17 59.71469 25.80965 23306 ft 462 kts 62°
2026-05-07 15:17 59.73116 25.86304 22530 ft 455 kts 52°
2026-05-07 15:18 59.75310 25.90593 21776 ft 446 kts 36°
2026-05-07 15:18 59.77822 25.94090 21013 ft 441 kts 33°
2026-05-07 15:18 59.80384 25.97349 20236 ft 436 kts 28°
2026-05-07 15:18 59.83146 25.99751 19466 ft 428 kts 14°
2026-05-07 15:19 59.85999 26.00765 18739 ft 421 kts
2026-05-07 15:19 59.88885 26.01403 17978 ft 416 kts
2026-05-07 15:19 59.91736 26.01476 17229 ft 410 kts 353°
2026-05-07 15:19 59.94481 26.00370 16503 ft 402 kts 341°
2026-05-07 15:20 59.97100 25.98648 15783 ft 397 kts 339°
2026-05-07 15:20 59.99604 25.96608 15091 ft 391 kts 332°
2026-05-07 15:20 60.01848 25.93749 14406 ft 384 kts 320°
2026-05-07 15:20 60.03871 25.90271 13717 ft 378 kts 317°
2026-05-07 15:21 60.05712 25.86697 13040 ft 373 kts 311°
2026-05-07 15:21 60.07239 25.82540 12358 ft 367 kts 300°
2026-05-07 15:21 60.08450 25.78159 11840 ft 359 kts 299°
2026-05-07 15:21 60.09730 25.73927 11479 ft 347 kts 301°
2026-05-07 15:22 60.10940 25.69977 11288 ft 332 kts 300°
2026-05-07 15:22 60.12071 25.66176 11132 ft 317 kts 299°
2026-05-07 15:22 60.13162 25.62481 10976 ft 304 kts 299°
2026-05-07 15:22 60.14204 25.58941 10825 ft 292 kts 299°
2026-05-07 15:23 60.15205 25.55530 10575 ft 284 kts 299°
2026-05-07 15:23 60.16201 25.52129 10218 ft 281 kts 299°
2026-05-07 15:23 60.17169 25.48827 10036 ft 271 kts 299°
2026-05-07 15:23 60.18102 25.45650 9745 ft 267 kts 299°
2026-05-07 15:24 60.19013 25.42543 9408 ft 265 kts 299°
2026-05-07 15:24 60.19948 25.39364 9072 ft 263 kts 299°
2026-05-07 15:24 60.20869 25.36231 8741 ft 261 kts 299°
2026-05-07 15:24 60.21772 25.33168 8418 ft 260 kts 298°
2026-05-07 15:25 60.22741 25.30076 8089 ft 262 kts 301°
2026-05-07 15:25 60.23735 25.27019 7756 ft 263 kts 300°
2026-05-07 15:25 60.24723 25.23958 7431 ft 261 kts 300°
2026-05-07 15:25 60.25752 25.21001 7117 ft 260 kts 309°
2026-05-07 15:26 60.27097 25.18660 6809 ft 268 kts 324°
2026-05-07 15:26 60.28731 25.16825 6474 ft 270 kts 335°
2026-05-07 15:26 60.30481 25.15557 6148 ft 269 kts 340°
2026-05-07 15:26 60.32252 25.14509 5812 ft 267 kts 342°
2026-05-07 15:27 60.34053 25.13518 5467 ft 266 kts 343°
2026-05-07 15:27 60.35801 25.12557 5133 ft 265 kts 339°
2026-05-07 15:27 60.37425 25.10972 4803 ft 261 kts 329°
2026-05-07 15:27 60.39004 25.09219 4470 ft 261 kts 330°
2026-05-07 15:28 60.40602 25.07554 4095 ft 262 kts 332°
2026-05-07 15:28 60.42211 25.05886 3974 ft 258 kts 332°
2026-05-07 15:28 60.43813 25.04230 3995 ft 262 kts 331°
2026-05-07 15:28 60.45365 25.02630 3991 ft 258 kts 331°
2026-05-07 15:29 60.46904 25.00961 3993 ft 252 kts 325°
2026-05-07 15:29 60.48003 24.98393 3990 ft 232 kts 289°
2026-05-07 15:29 60.48241 24.95237 3996 ft 221 kts 265°
2026-05-07 15:29 60.47896 24.92321 3996 ft 214 kts 241°
2026-05-07 15:30 60.47199 24.89642 3990 ft 215 kts 240°
2026-05-07 15:30 60.46505 24.86992 3993 ft 215 kts 233°
2026-05-07 15:30 60.45370 24.85135 3991 ft 210 kts 195°
2026-05-07 15:30 60.43952 24.85263 3943 ft 207 kts 160°
2026-05-07 15:31 60.42674 24.86542 3733 ft 204 kts 154°
2026-05-07 15:31 60.41408 24.87870 3382 ft 205 kts 153°
2026-05-07 15:31 60.40213 24.89156 3069 ft 186 kts 153°
2026-05-07 15:31 60.39129 24.90329 2558 ft 172 kts 154°
2026-05-07 15:32 60.38086 24.91323 2136 ft 156 kts 157°
2026-05-07 15:32 60.37177 24.92221 1916 ft 147 kts 154°
2026-05-07 15:32 60.36310 24.93145 1488 ft 139 kts 153°
2026-05-07 15:32 60.35457 24.94014 1096 ft 137 kts 153°
2026-05-07 15:33 60.34598 24.94843 750 ft 136 kts 155°
2026-05-07 15:33 60.33765 24.95696 462 ft 131 kts 153°
2026-05-07 15:33 60.33008 24.96481 221 ft 114 kts 156°
2026-05-07 15:33 60.32383 24.97112 164 ft 72 kts 153°
2026-05-07 15:34 60.32145 24.97356 159 ft 17 kts 153°
2026-05-07 15:34 60.31985 24.97521 157 ft 32 kts 155°
2026-05-07 15:34 60.31813 24.97697 155 ft 21 kts 154°
2026-05-07 15:34 60.31700 24.97697 155 ft 14 kts 220°
2026-05-07 15:35 60.31654 24.97553 157 ft 10 kts 243°
2026-05-07 15:35 60.31631 24.97449 158 ft 4 kts 253°
2026-05-07 15:35 60.31627 24.97425 158 ft 1 kts 250°
2026-05-07 15:35 60.31617 24.97378 158 ft 5 kts 245°
2026-05-07 15:36 60.31605 24.97330 159 ft 2 kts 243°
2026-05-07 15:36 60.31603 24.97319 159 ft 0 kts 243°
2026-05-07 15:36 60.31599 24.97303 159 ft 1 kts 244°
2026-05-07 15:36 60.31598 24.97301 159 ft 0 kts 244°